When you browse on this site, cookies collect data to enhance your experience and personalize the content and advertising you see.
Visit our Privacy Policy to learn more. By continuing to use the site, you agree to this use of cookies and data.
  • In Latvia
  • List of Countries
  • For 7 days
  • Water Temperature
  • Satellite Maps
  • Weather Map
  • Weather Widgets
  • user-avatar
    Login

    Hourly Weather Liverpool

    Today, 18 December, Tuesday

    Time Temperature Precipitation Wind Pressure Humidity
    00:00 +9°C° 0 mm 8 mps 755 mmHg 88%
    01:00 +9°C° 0 mm 8 mps 755 mmHg 87%
    02:00 +8°C° 0 mm 9 mps 754 mmHg 86%
    03:00 +8°C° 0 mm 9 mps 754 mmHg 84%
    04:00 +8°C° 0 mm 9 mps 753 mmHg 83%
    05:00 +8°C° 0 mm 10 mps 752 mmHg 82%
    06:00 +10°C° 0 mm 9 mps 751 mmHg 83%
    07:00 +9°C° 0.6 mm 10 mps 750 mmHg 83%
    08:00 +8°C° 0.6 mm 11 mps 750 mmHg 82%
    09:00 +8°C° 0.6 mm 12 mps 750 mmHg 82%
    10:00 +8°C° 0.9 mm 12 mps 749 mmHg 82%
    11:00 +8°C° 0.9 mm 11 mps 749 mmHg 82%
    12:00 +8°C° 0.9 mm 11 mps 749 mmHg 82%
    13:00 +8°C° 1.2 mm 10 mps 748 mmHg 83%
    14:00 +7°C° 1.2 mm 9 mps 748 mmHg 84%
    15:00 +7°C° 1.2 mm 8 mps 747 mmHg 86%
    16:00 +8°C° 1.1 mm 7 mps 747 mmHg 87%
    17:00 +8°C° 1.1 mm 6 mps 747 mmHg 89%
    18:00 +7°C° 1.1 mm 5 mps 747 mmHg 90%
    19:00 +7°C° 0.2 mm 5 mps 747 mmHg 90%
    20:00 +7°C° 0.2 mm 5 mps 747 mmHg 89%
    21:00 +7°C° 0.2 mm 5 mps 747 mmHg 89%
    22:00 +6°C° 0.1 mm 5 mps 748 mmHg 90%
    23:00 +6°C° 0.1 mm 5 mps 748 mmHg 90%

    Tomorrow, 19 December, Wednesday

    Time Temperature Precipitation Wind Pressure Humidity
    00:00 +6°C° 0.1 mm 5 mps 748 mmHg 90%
    01:00 +6°C° 0.2 mm 5 mps 748 mmHg 91%
    02:00 +6°C° 0.2 mm 5 mps 749 mmHg 91%
    03:00 +5°C° 0.2 mm 5 mps 749 mmHg 91%
    04:00 +5°C° 0.1 mm 4 mps 749 mmHg 91%
    05:00 +5°C° 0.1 mm 4 mps 749 mmHg 91%
    06:00 +5°C° 0.1 mm 4 mps 749 mmHg 92%
    07:00 +5°C° 0.1 mm 4 mps 750 mmHg 91%
    08:00 +5°C° 0.1 mm 4 mps 750 mmHg 91%
    09:00 +5°C° 0.1 mm 5 mps 750 mmHg 90%
    10:00 +6°C° 0 mm 5 mps 750 mmHg 86%
    11:00 +5°C° 0 mm 6 mps 750 mmHg 82%
    12:00 +7°C° 0 mm 6 mps 750 mmHg 78%
    13:00 +7°C° 0.1 mm 6 mps 749 mmHg 78%
    14:00 +7°C° 0.1 mm 6 mps 749 mmHg 78%
    15:00 +7°C° 0.1 mm 6 mps 748 mmHg 78%
    16:00 +6°C° 0.5 mm 7 mps 748 mmHg 80%
    17:00 +5°C° 0.5 mm 7 mps 748 mmHg 82%
    18:00 +5°C° 0.5 mm 7 mps 748 mmHg 83%
    19:00 +5°C° 0.3 mm 7 mps 748 mmHg 84%
    20:00 +5°C° 0.3 mm 6 mps 748 mmHg 85%
    21:00 +5°C° 0.3 mm 6 mps 748 mmHg 85%
    22:00 +5°C° 0.1 mm 6 mps 748 mmHg 86%
    23:00 +4°C° 0.1 mm 6 mps 748 mmHg 86%

    Day after tomorrow, 20 December, Thursday

    Time Temperature Precipitation Wind Pressure Humidity
    00:00 +4°C° 0.1 mm 6 mps 748 mmHg 86%
    01:00 +4°C° 0.2 mm 6 mps 748 mmHg 86%
    02:00 +5°C° 0.2 mm 6 mps 748 mmHg 86%
    03:00 +5°C° 0.2 mm 7 mps 749 mmHg 86%
    04:00 +5°C° 0.3 mm 7 mps 749 mmHg 85%
    05:00 +5°C° 0.3 mm 7 mps 749 mmHg 84%
    06:00 +6°C° 0.3 mm 8 mps 750 mmHg 83%
    07:00 +6°C° 0.1 mm 7 mps 750 mmHg 83%
    08:00 +5°C° 0.1 mm 7 mps 751 mmHg 83%
    09:00 +5°C° 0.1 mm 7 mps 752 mmHg 84%
    10:00 +6°C° 0.1 mm 7 mps 752 mmHg 81%
    11:00 +6°C° 0.1 mm 8 mps 752 mmHg 77%
    12:00 +7°C° 0.1 mm 8 mps 752 mmHg 74%
    13:00 +7°C° 0.3 mm 8 mps 752 mmHg 75%
    14:00 +8°C° 0.3 mm 7 mps 752 mmHg 75%
    15:00 +6°C° 0.3 mm 7 mps 753 mmHg 75%
    16:00 +6°C° 0.1 mm 7 mps 753 mmHg 78%
    17:00 +7°C° 0.1 mm 6 mps 753 mmHg 80%
    18:00 +5°C° 0.1 mm 6 mps 753 mmHg 82%
    19:00 +6°C° 0 mm 5 mps 752 mmHg 84%
    20:00 +6°C° 0 mm 5 mps 752 mmHg 86%
    21:00 +5°C° 0 mm 4 mps 751 mmHg 88%
    22:00 +5°C° 0.6 mm 4 mps 750 mmHg 89%
    23:00 +6°C° 0.6 mm 5 mps 749 mmHg 91%

    21 December, Friday

    Time Temperature Precipitation Wind Pressure Humidity
    00:00 +6°C° 0.6 mm 5 mps 748 mmHg 93%
    01:00 +7°C° 1.5 mm 6 mps 746 mmHg 93%
    02:00 +8°C° 1.5 mm 7 mps 745 mmHg 93%
    03:00 +10°C° 1.5 mm 7 mps 743 mmHg 93%
    04:00 +10°C° 0.2 mm 8 mps 743 mmHg 90%
    05:00 +10°C° 0.2 mm 9 mps 743 mmHg 86%
    06:00 +9°C° 0.2 mm 10 mps 743 mmHg 83%
    07:00 +8°C° 0.1 mm 10 mps 744 mmHg 80%
    08:00 +8°C° 0.1 mm 11 mps 745 mmHg 78%
    09:00 +7°C° 0.1 mm 11 mps 746 mmHg 75%
    10:00 +7°C° 0 mm 11 mps 746 mmHg 73%
    11:00 +7°C° 0 mm 12 mps 747 mmHg 71%
    12:00 +7°C° 0 mm 12 mps 747 mmHg 70%
    13:00 +7°C° 0 mm 12 mps 748 mmHg 69%
    14:00 +7°C° 0 mm 12 mps 748 mmHg 69%
    15:00 +7°C° 0 mm 12 mps 749 mmHg 69%
    16:00 +7°C° 0 mm 10 mps 749 mmHg 71%
    17:00 +7°C° 0 mm 9 mps 750 mmHg 74%
    18:00 +6°C° 0 mm 8 mps 750 mmHg 77%
    19:00 +8°C° 0.1 mm 7 mps 751 mmHg 79%
    20:00 +8°C° 0.1 mm 7 mps 751 mmHg 81%
    21:00 +8°C° 0.1 mm 6 mps 751 mmHg 84%
    22:00 +8°C° 0.6 mm 6 mps 750 mmHg 85%
    23:00 +8°C° 0.6 mm 6 mps 749 mmHg 86%

    22 December, Saturday

    Time Temperature Precipitation Wind Pressure Humidity
    00:00 +8°C° 0.6 mm 7 mps 749 mmHg 88%
    01:00 +8°C° 0.2 mm 7 mps 749 mmHg 85%
    02:00 +7°C° 0.2 mm 8 mps 748 mmHg 83%
    03:00 +7°C° 0.2 mm 8 mps 748 mmHg 81%
    04:00 +7°C° 0.2 mm 9 mps 749 mmHg 80%
    05:00 +7°C° 0.2 mm 9 mps 750 mmHg 79%
    06:00 +7°C° 0.2 mm 10 mps 750 mmHg 79%
    07:00 +7°C° 0.1 mm 9 mps 752 mmHg 79%
    08:00 +6°C° 0.1 mm 8 mps 753 mmHg 80%
    09:00 +6°C° 0.1 mm 7 mps 754 mmHg 80%
    10:00 +6°C° 0.1 mm 8 mps 755 mmHg 78%
    11:00 +7°C° 0.1 mm 8 mps 755 mmHg 76%
    12:00 +7°C° 0.1 mm 9 mps 756 mmHg 73%
    13:00 +7°C° 0 mm 8 mps 756 mmHg 73%
    14:00 +7°C° 0 mm 8 mps 757 mmHg 73%
    15:00 +6°C° 0 mm 8 mps 757 mmHg 73%
    16:00 +6°C° 0 mm 8 mps 757 mmHg 74%
    17:00 +6°C° 0 mm 8 mps 758 mmHg 76%
    18:00 +5°C° 0 mm 7 mps 759 mmHg 77%
    19:00 +5°C° 0 mm 7 mps 759 mmHg 77%
    20:00 +5°C° 0 mm 7 mps 760 mmHg 78%
    21:00 +5°C° 0 mm 7 mps 760 mmHg 78%
    22:00 +5°C° 0 mm 7 mps 760 mmHg 79%
    23:00 +5°C° 0 mm 7 mps 761 mmHg 80%

    23 December, Sunday

    Time Temperature Precipitation Wind Pressure Humidity
    00:00 +5°C° 0 mm 6 mps 761 mmHg 81%
    01:00 +5°C° 0 mm 6 mps 761 mmHg 83%
    02:00 +5°C° 0 mm 6 mps 761 mmHg 84%
    03:00 +5°C° 0 mm 5 mps 761 mmHg 86%
    04:00 +5°C° 0 mm 5 mps 761 mmHg 87%
    05:00 +5°C° 0 mm 4 mps 761 mmHg 89%
    06:00 +5°C° 0 mm 4 mps 761 mmHg 91%
    07:00 +5°C° 0 mm 3 mps 761 mmHg 92%
    08:00 +5°C° 0 mm 3 mps 761 mmHg 93%
    09:00 +5°C° 0 mm 3 mps 761 mmHg 93%
    10:00 +6°C° 0 mm 4 mps 761 mmHg 92%
    11:00 +7°C° 0 mm 4 mps 761 mmHg 91%
    12:00 +7°C° 0 mm 5 mps 760 mmHg 89%
    13:00 +7°C° 0.5 mm 5 mps 760 mmHg 90%
    14:00 +7°C° 0.5 mm 5 mps 759 mmHg 91%
    15:00 +7°C° 0.5 mm 6 mps 758 mmHg 92%
    16:00 +7°C° 1 mm 6 mps 757 mmHg 92%
    17:00 +8°C° 1 mm 6 mps 757 mmHg 93%
    18:00 +8°C° 1 mm 6 mps 756 mmHg 94%
    19:00 +8°C° 0.7 mm 5 mps 756 mmHg 94%
    20:00 +9°C° 0.7 mm 5 mps 756 mmHg 95%
    21:00 +10°C° 0.7 mm 4 mps 756 mmHg 95%
    22:00 +11°C° 0.1 mm 4 mps 756 mmHg 95%
    23:00 +11°C° 0.1 mm 4 mps 756 mmHg 95%
    Show more